CAPE
0 0 0 0 0 0 0 0 0 0 0 0 0 0 0 0 0 0 0 0 0 0 0 0 0 0 0 0 208 570 719 777 743 943 1114 1190 1205 1171 1082 981 884 836 768 690 615 572 536 538 515 510 510 518 516 505 340 334 486 524 555 606 582 634 582
0 0 0 0 0 0 0 0 0 0 0 0 0 0 0 0 0 0 0 0 0 0 0 0 0 0 0 0 0 25 413 568 656 724 1023 1211 1225 1199 1163 1099 1008 914 867 769 678 634 583 576 563 544 538 532 529 524 513 541 504 560 552 609 556 587 615
0 0 0 0 0 0 0 0 0 0 0 0 0 0 0 0 0 0 0 0 0 0 0 0 32 9 0 0 0 0 2 176 498 696 866 1155 1265 1249 1208 1180 1137 1076 985 881 758 682 648 642 609 570 558 543 539 531 548 554 578 586 572 636 579 535 545
0 0 0 0 0 0 0 0 0 0 0 0 0 0 0 0 0 0 0 0 0 3 2 15 140 222 180 11 0 0 0 9 151 486 822 1040 1248 1298 1250 1198 1175 1131 1076 975 823 731 690 688 661 620 578 538 558 576 575 587 606 602 592 612 703 536 481
0 0 0 0 0 0 0 0 0 0 0 0 0 0 0 0 0 0 0 0 0 14 30 110 195 269 229 16 0 2 0 0 26 204 613 1011 1208 1276 1257 1209 1165 1135 1091 994 868 780 734 707 676 657 621 613 609 608 610 626 634 629 613 543 617 563 440
0 0 0 0 0 0 0 0 0 0 0 0 0 0 0 0 0 0 0 0 0 84 0 99 132 153 192 236 23 179 210 23 0 80 346 860 1167 1268 1261 1209 1129 1095 1064 973 868 788 757 754 743 723 680 630 623 629 641 651 648 644 614 543 524 548 542
0 0 0 0 0 0 0 0 0 0 0 0 0 0 0 0 0 0 0 0 0 0 0 0 94 98 176 210 204 255 2 69 75 35 181 633 995 1196 1278 1230 1141 1073 1034 985 877 801 793 792 774 740 704 690 671 672 672 660 655 652 602 554 567 610 617
0 0 0 0 0 0 0 0 0 0 0 0 0 0 0 0 0 0 0 0 0 0 0 0 112 130 199 243 255 305 266 61 469 595 555 512 754 982 1110 1139 1111 1071 1050 1017 931 839 796 782 771 761 746 709 701 698 692 683 664 636 591 563 615 653 668
0 0 0 0 0 0 0 0 0 0 0 0 0 0 0 0 0 0 0 0 0 0 0 0 27 108 127 275 341 345 417 550 739 812 705 690 671 726 886 982 1016 1003 973 972 935 880 844 822 791 776 756 749 737 712 708 688 662 634 601 602 638 661 696
0 0 0 0 0 0 0 0 0 0 0 0 0 0 0 0 0 0 0 0 0 0 0 5 9 99 93 116 358 511 517 635 883 990 910 836 718 764 670 710 755 814 837 828 781 749 780 779 769 768 781 764 733 697 683 673 665 643 644 652 656 680 713
0 0 0 0 0 0 0 0 0 0 0 0 0 0 0 0 0 0 0 0 0 34 104 10 0 4 17 127 265 543 598 806 944 1056 1026 889 837 778 828 878 976 1020 900 768 668 726 707 661 639 680 724 734 729 717 760 811 846 734 701 698 706 725 742
0 0 0 0 0 0 0 0 0 0 0 0 0 0 0 0 0 0 0 0 0 175 184 16 0 0 22 138 247 336 672 680 764 996 1048 1009 953 870 813 908 1023 1135 1132 1068 1007 929 828 758 670 619 612 683 755 798 859 920 963 939 847 750 747 771 787
0 0 0 0 0 0 0 0 0 0 0 0 0 0 0 0 0 0 0 0 0 64 222 114 0 0 100 69 222 195 451 643 692 847 1000 1071 1069 1025 952 944 1042 1131 1208 1172 1142 1066 969 886 815 741 676 645 759 813 853 960 1057 1122 1055 956 878 859 851
0 0 0 0 0 0 0 0 0 0 0 0 0 0 0 0 0 0 0 0 0 236 25 3 0 0 140 75 125 304 422 639 634 726 811 932 1036 1107 1115 1057 1066 1140 1212 1243 1223 1197 1127 1064 938 871 802 760 725 871 884 974 1150 1210 1210 1166 1105 1031 988
0 0 0 0 0 1 3 0 0 0 0 0 0 0 0 0 0 0 0 0 0 0 167 93 0 0 170 118 116 152 328 562 668 639 738 785 912 1013 1077 1128 1140 1186 1260 1291 1297 1262 1256 1176 1072 1024 991 920 862 843 805 1004 1168 1326 1396 1394 1351 1265 1176
0 0 0 0 0 0 2 6 6 5 3 3 0 0 0 1 0 0 0 0 0 0 90 2 0 0 100 208 144 110 238 366 476 596 679 733 806 866 941 1002 1076 1173 1225 1295 1333 1323 1297 1272 1243 1187 1127 1072 969 898 884 870 1116 1320 1495 1556 1547 1506 1484
0 0 0 0 0 0 0 5 11 10 11 10 7 2 10 4 1 0 0 0 0 0 0 0 0 0 23 193 155 133 197 307 393 482 566 652 767 823 878 965 1019 1128 1216 1286 1338 1378 1363 1341 1322 1267 1228 1177 1394 1276 974 1126 1079 1270 1493 1637 1624 1650 1695
0 0 0 0 0 0 0 0 10 11 20 20 18 11 80 5 4 2 0 1 0 0 13 61 35 0 16 91 106 124 153 220 265 342 433 551 530 771 884 938 1001 978 1098 1212 1307 1429 1450 1458 1404 1338 1282 1352 1395 1356 1398 1286 1198 1188 1368 1542 1412 1729 1773
0 0 0 0 0 0 0 0 0 1 24 31 31 24 10 112 36 11 3 2 4 2 6 0 0 0 2 37 125 126 112 159 166 160 288 320 443 493 518 429 706 872 918 980 1209 1360 1470 1487 1536 1531 1367 1306 1416 1453 1506 1560 1461 1303 1220 1217 1332 1667 1706
0 0 0 0 0 0 0 0 0 13 0 27 48 32 27 10 48 16 16 11 6 4 1 0 0 0 64 86 37 102 102 52 65 177 162 193 260 339 331 274 192 333 429 588 838 1117 1092 1235 1440 1525 1545 1490 1358 1488 1522 1552 1596 1572 1341 1250 1372 1515 1931
0 0 0 0 0 0 0 0 0 0 0 0 34 48 36 25 16 9 22 25 16 10 10 1 0 0 27 75 54 23 63 50 4 10 159 132 58 115 109 30 0 0 169 300 368 513 873 895 1001 1170 1227 1237 1396 1516 1532 1512 1445 1374 1328 1313 1280 1505 1826
0 0 0 0 0 0 0 0 49 0 0 0 0 25 41 31 20 10 16 26 28 16 12 12 12 0 0 4 0 3 14 4 0 0 0 12 88 12 0 0 0 0 0 0 213 32 243 305 90 936 1164 1216 1332 1366 1366 1370 1502 1558 1307 1284 1366 1435 1563
0 0 0 0 0 0 0 0 0 0 0 0 1 0 7 25 23 14 6 17 25 26 22 17 9 0 0 6 0 0 0 0 0 0 0 0 1 3 10 0 0 0 0 0 0 0 194 145 92 378 746 731 1190 1345 1443 1636 1560 1822 1892 1780 1512 1489 1449
0 0 0 0 0 0 0 0 0 0 0 0 0 0 15 1 0 4 9 9 22 28 7 4 26 13 0 0 0 0 0 0 0 0 0 0 0 0 0 0 0 0 0 0 0 0 62 164 169 156 323 469 931 1077 1380 1639 1758 1884 2311 2626 2732 1860 1668
1 10 0 0 0 26 0 0 0 0 0 1 0 0 16 2 0 0 0 6 0 1 12 5 29 25 7 0 0 0 0 0 0 0 0 0 0 0 0 0 0 0 0 0 0 0 0 0 162 226 230 269 267 332 732 1390 1682 1811 1862 2168 2680 2977 2862
0 0 0 0 0 5 0 0 0 6 0 0 0 0 0 0 0 0 0 0 0 0 0 0 0 0 0 0 0 0 0 0 0 0 0 0 0 0 0 0 0 0 0 0 0 0 0 0 73 166 204 210 226 226 250 447 1078 1514 1709 1795 1829 2193 2716
0 0 1 7 5 8 0 0 0 9 0 0 0 0 0 3 1 0 0 0 0 0 0 0 0 0 0 0 0 0 0 0 0 0 0 0 0 0 0 0 0 0 0 0 0 0 0 0 0 99 123 179 202 189 205 197 44 568 989 1336 1549 1748 2228
0 1 1 1 0 0 0 0 0 0 0 0 0 0 0 0 0 0 0 0 0 0 0 0 0 0 0 0 0 0 0 0 0 0 0 0 0 0 0 0 0 0 0 0 0 0 0 0 0 1 3 69 158 226 206 152 0 25 200 464 1087 1587 2529
0 0 0 0 0 0 0 0 0 0 0 0 0 0 0 0 0 0 0 0 0 0 0 0 0 0 0 0 0 0 0 0 0 0 0 0 0 0 0 0 0 0 0 0 0 0 0 0 0 0 3 2 1 0 34 0 0 0 34 409 962 1542 1946
0 0 0 0 0 0 0 0 0 0 0 0 0 0 0 0 0 0 0 0 0 0 0 0 0 0 0 0 0 0 0 0 0 0 0 0 0 0 0 0 0 0 0 0 0 0 0 0 0 0 0 2 2 0 0 0 0 0 0 292 786 1292 1604
0 0 0 0 0 0 0 0 0 0 0 0 0 0 0 0 0 0 0 0 0 0 0 0 0 0 0 0 0 0 0 0 0 0 0 0 0 0 0 0 0 0 0 0 0 0 0 0 0 0 0 0 3 4 1 0 0 0 24 196 259 355 573
0 0 0 0 0 0 0 0 0 0 0 0 0 0 0 0 0 0 0 0 0 0 0 0 0 0 0 0 0 0 0 0 0 0 0 0 0 0 0 0 0 0 0 0 0 0 0 0 0 0 0 0 0 1 0 0 1 1 1 1 4 14 88
0 0 0 0 0 0 0 0 0 0 0 0 0 0 0 0 0 0 0 0 0 0 0 0 0 0 0 0 0 0 0 0 0 0 0 0 0 0 0 0 0 0 0 0 0 0 0 0 0 0 0 0 0 0 1 1 0 0 1 1 2 2 26
0 0 0 0 0 0 0 0 0 0 0 0 0 0 0 0 0 0 0 0 0 0 0 0 0 0 0 0 0 0 0 0 0 0 0 0 0 0 0 0 0 0 0 0 0 0 0 0 0 0 0 0 0 0 1 1 0 0 1 2 2 1 40
0 0 0 0 0 0 0 0 0 0 0 0 0 0 0 0 0 0 0 0 0 0 0 0 0 0 0 0 0 0 0 0 0 0 0 0 0 0 0 0 0 0 0 0 0 0 0 0 0 0 1 0 0 0 0 0 0 0 0 1 2 1 46
0 0 0 0 0 0 0 0 0 0 0 0 0 0 0 0 0 0 0 0 1 0 0 0 0 1 0 0 0 0 0 0 0 0 0 0 0 0 0 0 0 0 0 0 0 0 0 0 0 0 0 0 0 0 0 0 0 0 0 0 1 1 2
0 0 0 0 0 0 0 0 0 0 0 0 0 0 0 0 0 0 0 2 4 8 10 7 1 0 0 0 0 0 0 0 0 0 0 0 1 3 0 0 0 0 0 0 0 0 0 0 0 2 1 0 0 1 1 0 0 0 0 0 122 169 166
Wind_Speed
nan nan nan nan nan nan nan nan nan nan nan nan nan nan nan nan nan nan nan nan nan nan nan nan nan nan nan nan 25 18 11 14 17 12 8 8 11 11 8 4 3 4 5 4 3 3 4 6 7 8 8 9 9 9 8 6 7 8 8 9 10 10 10
nan nan nan nan nan nan nan nan nan nan nan nan nan nan nan nan nan nan nan nan nan nan nan nan nan nan nan nan nan nan 19 20 17 12 10 8 8 11 12 8 6 6 5 3 3 2 4 6 7 7 8 9 9 9 9 8 8 7 8 10 11 13 11
nan nan nan nan nan nan nan nan nan nan nan nan nan nan nan nan nan nan nan nan nan nan nan nan nan nan nan nan nan nan nan 21 15 11 8 6 3 4 8 10 8 6 4 4 2 2 4 5 7 7 8 9 8 7 8 9 7 8 10 13 15 15 13
nan nan nan nan nan nan nan nan nan nan nan nan nan nan nan nan nan nan nan nan nan nan nan nan 44 47 44 nan nan nan nan nan 14 12 10 8 6 4 5 9 9 5 4 4 5 5 5 6 8 9 10 9 9 8 7 7 9 12 13 12 13 13 14
nan nan nan nan nan nan nan nan nan nan nan nan nan nan nan nan nan nan nan nan nan nan nan 48 46 48 48 nan nan nan nan nan nan 11 11 10 7 5 4 5 7 5 2 3 6 6 6 9 10 11 10 8 9 8 6 6 8 9 9 10 13 14 16
nan nan nan nan nan nan nan nan nan nan nan nan nan nan nan nan nan nan nan nan nan nan nan nan 46 47 49 47 nan 42 40 nan nan nan 11 10 8 5 6 6 6 4 1 2 6 9 11 11 12 11 9 8 8 7 6 5 5 6 7 10 12 14 16
nan nan nan nan nan nan nan nan nan nan nan nan nan nan nan nan nan nan nan nan nan nan nan nan nan nan 47 49 51 49 nan nan nan nan 16 11 9 10 9 9 9 8 6 5 7 9 10 9 10 11 10 8 7 7 7 4 3 3 6 9 13 17 17
nan nan nan nan nan nan nan nan nan nan nan nan nan nan nan nan nan nan nan nan nan nan nan nan 42 44 47 52 54 53 50 nan 43 33 22 23 24 24 19 16 16 15 12 10 10 11 12 12 11 10 10 8 7 7 7 5 3 4 7 11 14 16 16
nan nan nan nan nan nan nan nan nan nan nan nan nan nan nan nan nan nan nan nan nan nan nan nan nan 47 54 55 54 53 54 51 48 50 39 34 34 34 30 26 25 24 18 11 8 9 10 11 11 10 10 9 8 7 7 5 4 5 9 13 14 15 16
nan nan nan nan nan nan nan nan nan nan nan nan nan nan nan nan nan nan nan nan nan nan nan nan nan nan nan 55 54 52 49 49 51 50 51 52 49 45 41 40 37 32 25 21 18 16 15 14 13 12 10 10 8 8 7 6 5 7 8 12 13 15 17
nan nan nan nan nan nan nan nan nan nan nan nan nan nan nan nan nan nan nan nan nan nan 54 nan nan nan nan 54 54 54 50 49 50 51 51 51 51 51 50 46 44 45 43 32 27 29 29 28 24 20 16 14 12 11 8 8 8 8 9 11 13 15 16
nan nan nan nan nan nan nan nan nan nan nan nan nan nan nan nan nan nan nan nan nan 49 52 nan nan nan nan 49 46 48 50 47 47 48 51 55 55 55 53 53 52 50 47 46 34 26 29 31 30 28 26 23 20 17 14 12 11 10 11 11 12 13 15
nan nan nan nan nan nan nan nan nan nan nan nan nan nan nan nan nan nan nan nan nan nan 54 55 nan nan 50 nan 46 44 47 49 49 52 54 55 55 54 54 53 53 54 54 50 48 43 35 30 28 28 27 27 26 23 22 19 16 12 13 13 12 12 13
nan nan nan nan nan nan nan nan nan nan nan nan nan nan nan nan nan nan nan nan nan 50 nan nan nan nan 53 nan 45 48 54 54 52 50 52 53 53 53 52 51 53 54 56 57 54 50 47 45 39 32 28 29 27 25 24 23 20 18 18 15 14 13 12
nan nan nan nan nan nan nan nan nan nan nan nan nan nan nan nan nan nan nan nan nan nan 53 nan nan nan 54 56 58 54 53 56 57 54 53 53 52 51 50 51 52 54 57 59 58 56 53 49 46 45 39 33 30 28 27 25 22 21 20 18 15 14 13
nan nan nan nan nan nan nan nan nan nan nan nan nan nan nan nan nan nan nan nan nan nan nan nan nan nan nan 61 58 56 55 59 60 57 55 55 55 54 52 52 54 56 57 60 60 58 55 52 50 46 44 42 36 31 30 27 25 24 21 19 16 15 15
nan nan nan nan nan nan nan nan nan nan nan nan nan nan nan nan nan nan nan nan nan nan nan nan nan nan nan 60 60 57 58 60 62 59 56 55 56 56 55 56 56 54 54 56 59 58 55 53 52 50 46 45 46 47 44 44 43 36 27 22 20 18 17
nan nan nan nan nan nan nan nan nan nan nan nan nan nan nan nan nan nan nan nan nan nan nan nan nan nan nan nan 56 56 56 60 63 62 59 57 56 55 56 56 56 54 52 53 56 56 54 53 52 51 48 46 45 45 44 43 43 44 46 45 35 22 19
nan nan nan nan nan nan nan nan nan nan nan nan nan nan nan 65 nan nan nan nan nan nan nan nan nan nan nan nan 61 62 62 63 65 65 62 61 60 58 56 56 57 56 54 54 57 59 58 56 55 54 53 53 50 47 45 42 39 38 36 33 31 35 30
nan nan nan nan nan nan nan nan nan nan nan nan nan nan nan nan nan nan nan nan nan nan nan nan nan nan nan nan nan 64 63 nan nan 66 67 65 64 63 59 57 57 58 56 52 52 55 55 56 55 56 56 54 54 51 47 44 43 40 36 32 25 20 22
nan nan nan nan nan nan nan nan nan nan nan nan nan nan nan nan nan nan nan nan nan nan nan nan nan nan nan nan nan nan nan nan nan nan 64 67 nan 67 62 nan nan nan 57 54 53 54 55 56 54 55 54 53 52 51 49 45 41 38 37 35 27 21 17
nan nan nan nan nan nan nan nan nan nan nan nan nan nan nan nan nan nan nan nan nan nan nan nan nan nan nan nan nan nan nan nan nan nan nan nan nan nan nan nan nan nan nan nan 56 nan 53 53 nan 53 52 51 50 50 48 45 41 38 37 34 31 27 23
nan nan nan nan nan nan nan nan nan nan nan nan nan nan nan nan nan nan nan nan nan nan nan nan nan nan nan nan nan nan nan nan nan nan nan nan nan nan nan nan nan nan nan nan nan nan 55 54 nan 52 53 52 51 51 49 48 45 42 40 37 34 31 30
nan nan nan nan nan nan nan nan nan nan nan nan nan nan nan nan nan nan nan nan nan nan nan nan nan nan nan nan nan nan nan nan nan nan nan nan nan nan nan nan nan nan nan nan nan nan nan 58 55 54 54 50 48 49 47 45 44 44 47 46 38 33 32
nan nan nan nan nan nan nan nan nan nan nan nan nan nan nan nan nan nan nan nan nan nan nan nan nan nan nan nan nan nan nan nan nan nan nan nan nan nan nan nan nan nan nan nan nan nan nan nan 54 54 51 49 49 49 47 45 46 46 49 49 45 40 39
nan nan nan nan nan nan nan nan nan nan nan nan nan nan nan nan nan nan nan nan nan nan nan nan nan nan nan nan nan nan nan nan nan nan nan nan nan nan nan nan nan nan nan nan nan nan nan nan nan 53 53 52 48 47 46 47 48 47 48 48 46 44 37
nan nan nan nan nan nan nan nan nan nan nan nan nan nan nan nan nan nan nan nan nan nan nan nan nan nan nan nan nan nan nan nan nan nan nan nan nan nan nan nan nan nan nan nan nan nan nan nan nan nan 54 53 52 49 48 49 nan 48 47 46 46 46 44
nan nan nan nan nan nan nan nan nan nan nan nan nan nan nan nan nan nan nan nan nan nan nan nan nan nan nan nan nan nan nan nan nan nan nan nan nan nan nan nan nan nan nan nan nan nan nan nan nan nan nan nan 47 45 46 49 nan nan 48 46 45 46 45
nan nan nan nan nan nan nan nan nan nan nan nan nan nan nan nan nan nan nan nan nan nan nan nan nan nan nan nan nan nan nan nan nan nan nan nan nan nan nan nan nan nan nan nan nan nan nan nan nan nan nan nan nan nan nan nan nan nan nan 45 45 48 48
nan nan nan nan nan nan nan nan nan nan nan nan nan nan nan nan nan nan nan nan nan nan nan nan nan nan nan nan nan nan nan nan nan nan nan nan nan nan nan nan nan nan nan nan nan nan nan nan nan nan nan nan nan nan nan nan nan nan nan 41 40 44 49
nan nan nan nan nan nan nan nan nan nan nan nan nan nan nan nan nan nan nan nan nan nan nan nan nan nan nan nan nan nan nan nan nan nan nan nan nan nan nan nan nan nan nan nan nan nan nan nan nan nan nan nan nan nan nan nan nan nan nan 37 35 38 48
nan nan nan nan nan nan nan nan nan nan nan nan nan nan nan nan nan nan nan nan nan nan nan nan nan nan nan nan nan nan nan nan nan nan nan nan nan nan nan nan nan nan nan nan nan nan nan nan nan nan nan nan nan nan nan nan nan nan nan nan nan nan nan
nan nan nan nan nan nan nan nan nan nan nan nan nan nan nan nan nan nan nan nan nan nan nan nan nan nan nan nan nan nan nan nan nan nan nan nan nan nan nan nan nan nan nan nan nan nan nan nan nan nan nan nan nan nan nan nan nan nan nan nan nan nan nan
nan nan nan nan nan nan nan nan nan nan nan nan nan nan nan nan nan nan nan nan nan nan nan nan nan nan nan nan nan nan nan nan nan nan nan nan nan nan nan nan nan nan nan nan nan nan nan nan nan nan nan nan nan nan nan nan nan nan nan nan nan nan nan
nan nan nan nan nan nan nan nan nan nan nan nan nan nan nan nan nan nan nan nan nan nan nan nan nan nan nan nan nan nan nan nan nan nan nan nan nan nan nan nan nan nan nan nan nan nan nan nan nan nan nan nan nan nan nan nan nan nan nan nan nan nan nan
nan nan nan nan nan nan nan nan nan nan nan nan nan nan nan nan nan nan nan nan nan nan nan nan nan nan nan nan nan nan nan nan nan nan nan nan nan nan nan nan nan nan nan nan nan nan nan nan nan nan nan nan nan nan nan nan nan nan nan nan nan nan nan
nan nan nan nan nan nan nan nan nan nan nan nan nan nan nan nan nan nan nan nan nan nan nan nan nan nan nan nan nan nan nan nan nan nan nan nan nan nan nan nan nan nan nan nan nan nan nan nan nan nan nan nan nan nan nan nan nan nan nan nan 46 45 46
Wind_Direction
nan nan nan nan nan nan nan nan nan nan nan nan nan nan nan nan nan nan nan nan nan nan nan nan nan nan nan nan 194 204 221 248 252 252 281 331 346 332 307 277 253 274 258 256 268 299 307 313 312 321 317 310 310 292 274 250 228 228 230 217 210 210 215
nan nan nan nan nan nan nan nan nan nan nan nan nan nan nan nan nan nan nan nan nan nan nan nan nan nan nan nan nan nan 199 235 251 249 261 289 339 347 331 306 265 258 256 258 239 261 322 327 327 320 312 295 295 291 281 266 234 228 224 221 211 207 211
nan nan nan nan nan nan nan nan nan nan nan nan nan nan nan nan nan nan nan nan nan nan nan nan nan nan nan nan nan nan nan 230 241 247 254 250 276 302 306 311 295 268 265 272 287 321 311 310 307 302 290 286 288 289 282 273 258 233 229 219 210 202 203
nan nan nan nan nan nan nan nan nan nan nan nan nan nan nan nan nan nan nan nan nan nan nan nan 211 209 207 nan nan nan nan nan 234 237 234 228 242 268 310 333 329 310 294 290 294 303 298 293 289 283 289 287 309 316 300 266 244 232 227 226 222 209 202
nan nan nan nan nan nan nan nan nan nan nan nan nan nan nan nan nan nan nan nan nan nan nan 216 212 213 211 nan nan nan nan nan nan 232 236 233 247 255 255 316 334 331 317 280 271 265 255 249 255 264 277 299 307 310 314 291 266 249 236 232 231 220 212
nan nan nan nan nan nan nan nan nan nan nan nan nan nan nan nan nan nan nan nan nan nan nan nan 213 218 214 210 nan 204 203 nan nan nan 226 238 249 255 249 264 294 302 305 283 261 248 237 241 251 270 277 278 294 315 323 305 267 250 245 227 225 227 220
nan nan nan nan nan nan nan nan nan nan nan nan nan nan nan nan nan nan nan nan nan nan nan nan nan nan 210 207 204 204 nan nan nan nan 205 215 240 261 256 254 262 269 277 292 276 261 251 252 256 271 271 281 300 319 319 305 283 250 236 226 221 223 222
nan nan nan nan nan nan nan nan nan nan nan nan nan nan nan nan nan nan nan nan nan nan nan nan 209 208 206 204 204 203 208 nan 201 197 219 205 205 211 217 217 220 231 244 257 250 243 237 234 242 262 268 274 281 294 315 315 317 251 228 219 217 220 222
nan nan nan nan nan nan nan nan nan nan nan nan nan nan nan nan nan nan nan nan nan nan nan nan nan 203 204 204 206 207 208 207 205 204 201 206 210 214 213 207 204 211 222 239 247 244 235 232 235 243 256 261 271 287 301 320 304 258 235 223 217 215 217
nan nan nan nan nan nan nan nan nan nan nan nan nan nan nan nan nan nan nan nan nan nan nan nan nan nan nan 202 206 209 209 208 206 204 205 204 204 206 212 210 205 202 202 198 197 200 203 211 216 226 235 242 250 262 285 296 289 267 252 234 224 216 215
nan nan nan nan nan nan nan nan nan nan nan nan nan nan nan nan nan nan nan nan nan nan 202 nan nan nan nan 201 203 209 207 203 204 205 206 208 209 207 206 209 207 205 202 200 197 191 190 190 195 202 207 213 222 231 247 263 267 269 261 248 234 222 217
nan nan nan nan nan nan nan nan nan nan nan nan nan nan nan nan nan nan nan nan nan 199 203 nan nan nan nan 203 202 202 204 203 204 205 205 206 209 207 206 206 204 203 202 198 197 202 199 196 197 197 197 198 203 210 218 230 241 248 245 246 238 228 222
nan nan nan nan nan nan nan nan nan nan nan nan nan nan nan nan nan nan nan nan nan nan 208 208 nan nan 200 nan 199 196 201 202 203 206 205 205 205 206 207 205 203 201 200 200 198 194 197 204 205 203 203 203 204 203 207 213 219 228 236 234 230 227 221
nan nan nan nan nan nan nan nan nan nan nan nan nan nan nan nan nan nan nan nan nan 212 nan nan nan nan 205 nan 202 200 203 204 202 205 206 205 206 207 207 206 205 202 201 201 199 198 198 198 200 205 209 210 211 210 210 212 212 216 220 217 219 219 213
nan nan nan nan nan nan nan nan nan nan nan nan nan nan nan nan nan nan nan nan nan nan 210 nan nan nan 211 210 208 206 204 205 206 207 207 206 206 207 208 209 209 206 204 203 203 202 199 197 201 202 203 209 215 214 217 217 216 217 215 209 210 212 206
nan nan nan nan nan nan nan nan nan nan nan nan nan nan nan nan nan nan nan nan nan nan nan nan nan nan nan 211 208 209 206 204 205 206 207 205 205 205 207 209 211 210 207 206 205 204 201 200 200 206 208 203 211 217 218 220 221 220 215 210 211 208 207
nan nan nan nan nan nan nan nan nan nan nan nan nan nan nan nan nan nan nan nan nan nan nan nan nan nan nan 210 207 206 206 205 205 205 207 208 206 205 205 205 208 211 211 209 207 205 205 203 202 203 206 211 210 208 213 214 214 213 210 210 210 208 210
nan nan nan nan nan nan nan nan nan nan nan nan nan nan nan nan nan nan nan nan nan nan nan nan nan nan nan nan 207 207 206 204 205 204 207 209 208 205 203 203 204 207 211 210 208 206 206 203 203 202 205 209 214 218 215 213 225 225 218 199 191 198 207
nan nan nan nan nan nan nan nan nan nan nan nan nan nan nan 219 nan nan nan nan nan nan nan nan nan nan nan nan 209 206 205 206 207 203 204 209 209 206 205 203 203 204 205 207 206 205 205 204 203 203 206 207 211 213 216 218 220 232 236 229 207 187 190
nan nan nan nan nan nan nan nan nan nan nan nan nan nan nan nan nan nan nan nan nan nan nan nan nan nan nan nan nan 207 204 nan nan 205 203 205 211 209 207 205 204 206 206 205 206 206 205 206 206 206 204 206 207 210 214 218 219 219 224 232 229 219 197
nan nan nan nan nan nan nan nan nan nan nan nan nan nan nan nan nan nan nan nan nan nan nan nan nan nan nan nan nan nan nan nan nan nan 205 205 nan 210 210 nan nan nan 208 205 203 206 206 205 208 206 207 207 207 209 213 215 218 222 222 216 216 223 222
nan nan nan nan nan nan nan nan nan nan nan nan nan nan nan nan nan nan nan nan nan nan nan nan nan nan nan nan nan nan nan nan nan nan nan nan nan nan nan nan nan nan nan nan 204 nan 204 207 nan 207 208 211 210 209 211 213 217 221 220 214 212 214 216
nan nan nan nan nan nan nan nan nan nan nan nan nan nan nan nan nan nan nan nan nan nan nan nan nan nan nan nan nan nan nan nan nan nan nan nan nan nan nan nan nan nan nan nan nan nan 203 206 nan 211 213 213 212 209 208 209 213 217 218 214 210 213 214
nan nan nan nan nan nan nan nan nan nan nan nan nan nan nan nan nan nan nan nan nan nan nan nan nan nan nan nan nan nan nan nan nan nan nan nan nan nan nan nan nan nan nan nan nan nan nan 202 206 214 215 216 214 211 207 207 210 213 212 210 211 212 214
nan nan nan nan nan nan nan nan nan nan nan nan nan nan nan nan nan nan nan nan nan nan nan nan nan nan nan nan nan nan nan nan nan nan nan nan nan nan nan nan nan nan nan nan nan nan nan nan 204 209 216 218 214 212 211 212 211 209 208 207 206 212 211
nan nan nan nan nan nan nan nan nan nan nan nan nan nan nan nan nan nan nan nan nan nan nan nan nan nan nan nan nan nan nan nan nan nan nan nan nan nan nan nan nan nan nan nan nan nan nan nan nan 208 212 215 217 216 217 216 214 209 208 209 208 211 220
nan nan nan nan nan nan nan nan nan nan nan nan nan nan nan nan nan nan nan nan nan nan nan nan nan nan nan nan nan nan nan nan nan nan nan nan nan nan nan nan nan nan nan nan nan nan nan nan nan nan 212 213 213 215 217 218 nan 214 213 212 211 210 209
nan nan nan nan nan nan nan nan nan nan nan nan nan nan nan nan nan nan nan nan nan nan nan nan nan nan nan nan nan nan nan nan nan nan nan nan nan nan nan nan nan nan nan nan nan nan nan nan nan nan nan nan 211 212 212 216 nan nan 215 214 215 213 212
nan nan nan nan nan nan nan nan nan nan nan nan nan nan nan nan nan nan nan nan nan nan nan nan nan nan nan nan nan nan nan nan nan nan nan nan nan nan nan nan nan nan nan nan nan nan nan nan nan nan nan nan nan nan nan nan nan nan nan 216 217 215 214
nan nan nan nan nan nan nan nan nan nan nan nan nan nan nan nan nan nan nan nan nan nan nan nan nan nan nan nan nan nan nan nan nan nan nan nan nan nan nan nan nan nan nan nan nan nan nan nan nan nan nan nan nan nan nan nan nan nan nan 212 218 218 213
nan nan nan nan nan nan nan nan nan nan nan nan nan nan nan nan nan nan nan nan nan nan nan nan nan nan nan nan nan nan nan nan nan nan nan nan nan nan nan nan nan nan nan nan nan nan nan nan nan nan nan nan nan nan nan nan nan nan nan 212 219 217 210
nan nan nan nan nan nan nan nan nan nan nan nan nan nan nan nan nan nan nan nan nan nan nan nan nan nan nan nan nan nan nan nan nan nan nan nan nan nan nan nan nan nan nan nan nan nan nan nan nan nan nan nan nan nan nan nan nan nan nan nan nan nan nan
nan nan nan nan nan nan nan nan nan nan nan nan nan nan nan nan nan nan nan nan nan nan nan nan nan nan nan nan nan nan nan nan nan nan nan nan nan nan nan nan nan nan nan nan nan nan nan nan nan nan nan nan nan nan nan nan nan nan nan nan nan nan nan
nan nan nan nan nan nan nan nan nan nan nan nan nan nan nan nan nan nan nan nan nan nan nan nan nan nan nan nan nan nan nan nan nan nan nan nan nan nan nan nan nan nan nan nan nan nan nan nan nan nan nan nan nan nan nan nan nan nan nan nan nan nan nan
nan nan nan nan nan nan nan nan nan nan nan nan nan nan nan nan nan nan nan nan nan nan nan nan nan nan nan nan nan nan nan nan nan nan nan nan nan nan nan nan nan nan nan nan nan nan nan nan nan nan nan nan nan nan nan nan nan nan nan nan nan nan nan
nan nan nan nan nan nan nan nan nan nan nan nan nan nan nan nan nan nan nan nan nan nan nan nan nan nan nan nan nan nan nan nan nan nan nan nan nan nan nan nan nan nan nan nan nan nan nan nan nan nan nan nan nan nan nan nan nan nan nan nan nan nan nan
nan nan nan nan nan nan nan nan nan nan nan nan nan nan nan nan nan nan nan nan nan nan nan nan nan nan nan nan nan nan nan nan nan nan nan nan nan nan nan nan nan nan nan nan nan nan nan nan nan nan nan nan nan nan nan nan nan nan nan nan 213 212 214